• In Lithuania
  • List of Countries
  • For 7 days
  • Water Temperature
  • Satellite Maps
  • Weather Map
  • Weather Widgets
  • user-avatar
    Login

    Hourly Weather Olgino

    Today, 18 August, Saturday

    Time Temperature Precipitation Wind Pressure Humidity
    00:00 +25°C° 0.1 mm 1 mps 742 mmHg 49%
    01:00 +24°C° 0 mm 1 mps 742 mmHg 52%
    02:00 +24°C° 0 mm 1 mps 741 mmHg 54%
    03:00 +21°C° 0 mm 0 mps 741 mmHg 57%
    04:00 +21°C° 0 mm 0 mps 741 mmHg 57%
    05:00 +23°C° 0 mm 1 mps 741 mmHg 57%
    06:00 +23°C° 0 mm 1 mps 741 mmHg 56%
    07:00 +25°C° 0 mm 1 mps 742 mmHg 49%
    08:00 +28°C° 0 mm 1 mps 742 mmHg 42%
    09:00 +30°C° 0 mm 1 mps 742 mmHg 36%
    10:00 +31°C° 0 mm 2 mps 742 mmHg 31%
    11:00 +32°C° 0 mm 2 mps 742 mmHg 27%
    12:00 +34°C° 0 mm 3 mps 742 mmHg 23%
    13:00 +35°C° 0 mm 3 mps 741 mmHg 21%
    14:00 +35°C° 0 mm 3 mps 741 mmHg 20%
    15:00 +36°C° 0 mm 3 mps 741 mmHg 18%
    16:00 +35°C° 0 mm 3 mps 741 mmHg 21%
    17:00 +34°C° 0 mm 3 mps 741 mmHg 23%
    18:00 +32°C° 0 mm 2 mps 741 mmHg 25%
    19:00 +31°C° 0 mm 2 mps 742 mmHg 27%
    20:00 +29°C° 0 mm 3 mps 742 mmHg 29%
    21:00 +28°C° 0 mm 3 mps 742 mmHg 30%
    22:00 +27°C° 0 mm 3 mps 742 mmHg 34%
    23:00 +26°C° 0 mm 4 mps 742 mmHg 38%

    Tomorrow, 19 August, Sunday

    Time Temperature Precipitation Wind Pressure Humidity
    00:00 +26°C° 0 mm 4 mps 742 mmHg 42%
    01:00 +25°C° 0 mm 4 mps 742 mmHg 45%
    02:00 +23°C° 0 mm 4 mps 743 mmHg 48%
    03:00 +22°C° 0 mm 4 mps 743 mmHg 51%
    04:00 +22°C° 0 mm 4 mps 743 mmHg 51%
    05:00 +21°C° 0 mm 4 mps 743 mmHg 51%
    06:00 +21°C° 0 mm 3 mps 744 mmHg 51%
    07:00 +22°C° 0 mm 4 mps 744 mmHg 47%
    08:00 +23°C° 0 mm 4 mps 744 mmHg 44%
    09:00 +25°C° 0 mm 4 mps 744 mmHg 40%
    10:00 +25°C° 0 mm 4 mps 744 mmHg 39%
    11:00 +26°C° 0 mm 4 mps 744 mmHg 38%
    12:00 +26°C° 0 mm 4 mps 745 mmHg 36%
    13:00 +27°C° 0 mm 4 mps 744 mmHg 34%
    14:00 +28°C° 0 mm 4 mps 744 mmHg 32%
    15:00 +29°C° 0 mm 4 mps 744 mmHg 29%
    16:00 +28°C° 0 mm 4 mps 744 mmHg 30%
    17:00 +27°C° 0 mm 4 mps 744 mmHg 31%
    18:00 +27°C° 0 mm 4 mps 745 mmHg 31%
    19:00 +25°C° 0 mm 4 mps 745 mmHg 31%
    20:00 +24°C° 0 mm 3 mps 745 mmHg 31%
    21:00 +21°C° 0 mm 3 mps 746 mmHg 31%
    22:00 +21°C° 0 mm 3 mps 746 mmHg 33%
    23:00 +20°C° 0 mm 3 mps 746 mmHg 34%

    Day after tomorrow, 20 August, Monday

    Time Temperature Precipitation Wind Pressure Humidity
    00:00 +19°C° 0 mm 3 mps 746 mmHg 35%
    01:00 +19°C° 0 mm 3 mps 746 mmHg 36%
    02:00 +18°C° 0 mm 3 mps 746 mmHg 38%
    03:00 +18°C° 0 mm 3 mps 745 mmHg 39%
    04:00 +17°C° 0 mm 3 mps 746 mmHg 42%
    05:00 +17°C° 0 mm 3 mps 746 mmHg 44%
    06:00 +17°C° 0 mm 3 mps 746 mmHg 46%
    07:00 +19°C° 0 mm 4 mps 746 mmHg 42%
    08:00 +21°C° 0 mm 4 mps 746 mmHg 38%
    09:00 +23°C° 0 mm 5 mps 746 mmHg 35%
    10:00 +26°C° 0 mm 5 mps 746 mmHg 32%
    11:00 +27°C° 0 mm 6 mps 746 mmHg 30%
    12:00 +28°C° 0 mm 6 mps 746 mmHg 27%
    13:00 +28°C° 0 mm 6 mps 746 mmHg 27%
    14:00 +29°C° 0 mm 6 mps 745 mmHg 26%
    15:00 +29°C° 0 mm 6 mps 745 mmHg 25%
    16:00 +28°C° 0 mm 6 mps 745 mmHg 28%
    17:00 +27°C° 0 mm 6 mps 745 mmHg 31%
    18:00 +26°C° 0 mm 6 mps 745 mmHg 33%
    19:00 +24°C° 0 mm 6 mps 746 mmHg 37%
    20:00 +22°C° 0 mm 6 mps 746 mmHg 41%
    21:00 +21°C° 0 mm 6 mps 746 mmHg 44%
    22:00 +20°C° 0 mm 5 mps 746 mmHg 51%
    23:00 +20°C° 0 mm 5 mps 746 mmHg 58%

    21 August, Tuesday

    Time Temperature Precipitation Wind Pressure Humidity
    00:00 +19°C° 0 mm 4 mps 746 mmHg 65%
    01:00 +19°C° 0 mm 4 mps 745 mmHg 67%
    02:00 +18°C° 0 mm 4 mps 745 mmHg 70%
    03:00 +18°C° 0 mm 3 mps 745 mmHg 73%
    04:00 +18°C° 0 mm 3 mps 745 mmHg 73%
    05:00 +18°C° 0 mm 3 mps 745 mmHg 73%
    06:00 +17°C° 0 mm 3 mps 746 mmHg 73%
    07:00 +19°C° 0 mm 4 mps 746 mmHg 67%
    08:00 +21°C° 0 mm 5 mps 746 mmHg 60%
    09:00 +24°C° 0 mm 6 mps 746 mmHg 53%
    10:00 +26°C° 0 mm 6 mps 746 mmHg 49%
    11:00 +27°C° 0 mm 6 mps 745 mmHg 45%
    12:00 +29°C° 0 mm 6 mps 745 mmHg 41%
    13:00 +29°C° 0 mm 6 mps 745 mmHg 40%
    14:00 +30°C° 0 mm 6 mps 745 mmHg 39%
    15:00 +32°C° 0 mm 6 mps 745 mmHg 38%
    16:00 +30°C° 0 mm 6 mps 745 mmHg 40%
    17:00 +29°C° 0 mm 6 mps 745 mmHg 43%
    18:00 +28°C° 0 mm 5 mps 745 mmHg 46%
    19:00 +27°C° 0 mm 5 mps 745 mmHg 48%
    20:00 +26°C° 0 mm 5 mps 746 mmHg 51%
    21:00 +25°C° 0 mm 5 mps 746 mmHg 53%
    22:00 +23°C° 0 mm 5 mps 746 mmHg 57%
    23:00 +22°C° 0 mm 4 mps 745 mmHg 60%

    22 August, Wednesday

    Time Temperature Precipitation Wind Pressure Humidity
    00:00 +22°C° 0 mm 3 mps 745 mmHg 64%
    01:00 +21°C° 0 mm 3 mps 745 mmHg 65%
    02:00 +21°C° 0 mm 3 mps 745 mmHg 67%
    03:00 +20°C° 0 mm 3 mps 745 mmHg 69%
    04:00 +20°C° 0 mm 2 mps 746 mmHg 70%
    05:00 +20°C° 0 mm 2 mps 746 mmHg 71%
    06:00 +19°C° 0 mm 2 mps 746 mmHg 71%
    07:00 +21°C° 0 mm 3 mps 746 mmHg 65%
    08:00 +24°C° 0 mm 3 mps 746 mmHg 58%
    09:00 +26°C° 0 mm 3 mps 746 mmHg 52%
    10:00 +27°C° 0 mm 3 mps 746 mmHg 48%
    11:00 +29°C° 0 mm 4 mps 746 mmHg 44%
    12:00 +30°C° 0 mm 4 mps 745 mmHg 40%
    13:00 +30°C° 0 mm 3 mps 745 mmHg 39%
    14:00 +31°C° 0 mm 3 mps 745 mmHg 37%
    15:00 +33°C° 0 mm 3 mps 745 mmHg 35%
    16:00 +31°C° 0 mm 3 mps 745 mmHg 37%
    17:00 +31°C° 0 mm 2 mps 745 mmHg 38%
    18:00 +31°C° 0 mm 2 mps 745 mmHg 40%
    19:00 +29°C° 0 mm 2 mps 745 mmHg 42%
    20:00 +28°C° 0 mm 3 mps 746 mmHg 44%
    21:00 +26°C° 0 mm 3 mps 746 mmHg 46%
    22:00 +25°C° 0 mm 3 mps 746 mmHg 50%
    23:00 +25°C° 0 mm 3 mps 745 mmHg 54%

    23 August, Thursday

    Time Temperature Precipitation Wind Pressure Humidity
    00:00 +24°C° 0 mm 3 mps 745 mmHg 58%
    01:00 +22°C° 0 mm 3 mps 745 mmHg 61%
    02:00 +23°C° 0 mm 2 mps 745 mmHg 65%
    03:00 +21°C° 0 mm 2 mps 745 mmHg 68%
    04:00 +21°C° 0 mm 2 mps 745 mmHg 70%
    05:00 +21°C° 0 mm 2 mps 745 mmHg 72%
    06:00 +21°C° 0 mm 2 mps 745 mmHg 73%
    07:00 +24°C° 0 mm 3 mps 745 mmHg 65%
    08:00 +26°C° 0 mm 3 mps 745 mmHg 57%
    09:00 +28°C° 0 mm 4 mps 745 mmHg 49%
    10:00 +29°C° 0 mm 4 mps 744 mmHg 44%
    11:00 +32°C° 0 mm 5 mps 744 mmHg 38%
    12:00 +34°C° 0 mm 5 mps 743 mmHg 33%
    13:00 +34°C° 0 mm 5 mps 743 mmHg 31%
    14:00 +35°C° 0 mm 5 mps 743 mmHg 29%
    15:00 +36°C° 0 mm 5 mps 743 mmHg 27%
    16:00 +35°C° 0 mm 5 mps 743 mmHg 28%
    17:00 +34°C° 0 mm 5 mps 743 mmHg 30%
    18:00 +33°C° 0 mm 5 mps 742 mmHg 32%
    19:00 +30°C° 0 mm 4 mps 743 mmHg 35%
    20:00 +29°C° 0 mm 4 mps 743 mmHg 38%
    21:00 +27°C° 0 mm 4 mps 743 mmHg 41%
    22:00 +26°C° 0 mm 4 mps 743 mmHg 42%
    23:00 +25°C° 0 mm 3 mps 742 mmHg 44%
    Show more